• In Netherlands
  • List of Countries
  • For 7 days
  • Water Temperature
  • Satellite Maps
  • Weather Map
  • Weather Widgets
  • user-avatar
    Login

    Hourly Weather Kranevo

    Today, 22 February, Wednesday

    Time Temperature Precipitation Wind Pressure Humidity
    00:00 +2°C° 0.1 mm 5 mps 754 mmHg 80%
    01:00 +2°C° 0.1 mm 5 mps 753 mmHg 80%
    02:00 +3°C° 0 mm 6 mps 753 mmHg 80%
    03:00 +2°C° 0.1 mm 6 mps 753 mmHg 81%
    04:00 +2°C° 0.1 mm 6 mps 753 mmHg 82%
    05:00 +1°C° 0.1 mm 6 mps 753 mmHg 83%
    06:00 +2°C° 0 mm 6 mps 754 mmHg 85%
    07:00 +2°C° 0 mm 7 mps 754 mmHg 88%
    08:00 +2°C° 0 mm 7 mps 754 mmHg 90%
    09:00 +3°C° 0 mm 7 mps 755 mmHg 86%
    10:00 +4°C° 0 mm 6 mps 756 mmHg 82%
    11:00 +7°C° 0 mm 6 mps 756 mmHg 79%
    12:00 +7°C° 0 mm 5 mps 756 mmHg 76%
    13:00 +8°C° 0 mm 4 mps 757 mmHg 73%
    14:00 +10°C° 0 mm 3 mps 757 mmHg 70%
    15:00 +9°C° 0 mm 3 mps 757 mmHg 74%
    16:00 +9°C° 0 mm 3 mps 757 mmHg 78%
    17:00 +8°C° 0 mm 3 mps 757 mmHg 82%
    18:00 +7°C° 0 mm 3 mps 757 mmHg 85%
    19:00 +5°C° 0 mm 4 mps 757 mmHg 88%
    20:00 +5°C° 0 mm 4 mps 757 mmHg 91%
    21:00 +4°C° 0 mm 4 mps 757 mmHg 90%
    22:00 +3°C° 0 mm 5 mps 757 mmHg 90%
    23:00 +3°C° 0 mm 5 mps 757 mmHg 89%

    Tomorrow, 23 February, Thursday

    Time Temperature Precipitation Wind Pressure Humidity
    00:00 +3°C° 0 mm 5 mps 757 mmHg 88%
    01:00 +3°C° 0 mm 5 mps 757 mmHg 87%
    02:00 +3°C° 0 mm 5 mps 757 mmHg 86%
    03:00 +3°C° 0 mm 5 mps 756 mmHg 84%
    04:00 +5°C° 0 mm 4 mps 756 mmHg 83%
    05:00 +5°C° 0 mm 4 mps 755 mmHg 81%
    06:00 +5°C° 0 mm 4 mps 756 mmHg 80%
    07:00 +5°C° 0 mm 5 mps 756 mmHg 78%
    08:00 +6°C° 0 mm 5 mps 756 mmHg 76%
    09:00 +8°C° 0 mm 5 mps 756 mmHg 71%
    10:00 +10°C° 0 mm 5 mps 756 mmHg 66%
    11:00 +13°C° 0 mm 5 mps 756 mmHg 61%
    12:00 +14°C° 0 mm 5 mps 756 mmHg 58%
    13:00 +15°C° 0 mm 5 mps 756 mmHg 56%
    14:00 +15°C° 0 mm 5 mps 755 mmHg 54%
    15:00 +14°C° 0 mm 5 mps 755 mmHg 59%
    16:00 +13°C° 0 mm 5 mps 755 mmHg 64%
    17:00 +12°C° 0 mm 4 mps 755 mmHg 69%
    18:00 +11°C° 0 mm 4 mps 755 mmHg 72%
    19:00 +10°C° 0 mm 4 mps 755 mmHg 76%
    20:00 +8°C° 0 mm 4 mps 756 mmHg 80%
    21:00 +8°C° 0 mm 4 mps 756 mmHg 80%
    22:00 +8°C° 0 mm 4 mps 756 mmHg 81%
    23:00 +7°C° 0 mm 4 mps 756 mmHg 81%

    Day after tomorrow, 24 February, Friday

    Time Temperature Precipitation Wind Pressure Humidity
    00:00 +7°C° 0 mm 4 mps 755 mmHg 83%
    01:00 +7°C° 0 mm 4 mps 755 mmHg 85%
    02:00 +6°C° 0 mm 4 mps 755 mmHg 87%
    03:00 +6°C° 0 mm 4 mps 755 mmHg 88%
    04:00 +6°C° 0 mm 5 mps 754 mmHg 90%
    05:00 +6°C° 0 mm 5 mps 754 mmHg 91%
    06:00 +6°C° 0 mm 5 mps 754 mmHg 91%
    07:00 +6°C° 0 mm 5 mps 754 mmHg 91%
    08:00 +6°C° 0 mm 5 mps 754 mmHg 91%
    09:00 +8°C° 0 mm 6 mps 754 mmHg 84%
    10:00 +10°C° 0 mm 6 mps 754 mmHg 77%
    11:00 +13°C° 0 mm 6 mps 754 mmHg 70%
    12:00 +14°C° 0 mm 6 mps 754 mmHg 66%
    13:00 +15°C° 0 mm 6 mps 754 mmHg 62%
    14:00 +16°C° 0 mm 6 mps 753 mmHg 58%
    15:00 +15°C° 0 mm 6 mps 753 mmHg 62%
    16:00 +14°C° 0 mm 5 mps 753 mmHg 66%
    17:00 +14°C° 0 mm 5 mps 753 mmHg 70%
    18:00 +13°C° 0 mm 5 mps 754 mmHg 76%
    19:00 +11°C° 0 mm 6 mps 754 mmHg 81%
    20:00 +10°C° 0 mm 6 mps 754 mmHg 86%
    21:00 +9°C° 0 mm 6 mps 754 mmHg 87%
    22:00 +9°C° 0 mm 6 mps 754 mmHg 88%
    23:00 +8°C° 0 mm 6 mps 754 mmHg 89%

    25 February, Saturday

    Time Temperature Precipitation Wind Pressure Humidity
    00:00 +8°C° 0 mm 6 mps 754 mmHg 89%
    01:00 +8°C° 0 mm 6 mps 754 mmHg 89%
    02:00 +7°C° 0 mm 6 mps 753 mmHg 89%
    03:00 +7°C° 0 mm 6 mps 753 mmHg 89%
    04:00 +7°C° 0 mm 6 mps 753 mmHg 89%
    05:00 +6°C° 0 mm 7 mps 753 mmHg 89%
    06:00 +8°C° 0.2 mm 6 mps 753 mmHg 89%
    07:00 +8°C° 0.2 mm 6 mps 754 mmHg 88%
    08:00 +8°C° 0.2 mm 6 mps 754 mmHg 87%
    09:00 +9°C° 0.3 mm 5 mps 755 mmHg 85%
    10:00 +10°C° 0.3 mm 4 mps 756 mmHg 84%
    11:00 +11°C° 0.3 mm 4 mps 756 mmHg 82%
    12:00 +8°C° 1.8 mm 5 mps 757 mmHg 84%
    13:00 +5°C° 1.8 mm 6 mps 758 mmHg 87%
    14:00 +4°C° 1.8 mm 8 mps 759 mmHg 89%
    15:00 +4°C° 0.2 mm 7 mps 760 mmHg 86%
    16:00 +3°C° 0.2 mm 6 mps 760 mmHg 84%
    17:00 +3°C° 0.2 mm 5 mps 761 mmHg 82%
    18:00 +4°C° 0 mm 4 mps 762 mmHg 83%
    19:00 +4°C° 0 mm 3 mps 763 mmHg 84%
    20:00 +4°C° 0 mm 2 mps 764 mmHg 85%
    21:00 +4°C° 0 mm 2 mps 764 mmHg 86%
    22:00 +4°C° 0 mm 2 mps 765 mmHg 86%
    23:00 +3°C° 0 mm 2 mps 765 mmHg 87%

    26 February, Sunday

    Time Temperature Precipitation Wind Pressure Humidity
    00:00 +3°C° 0 mm 2 mps 765 mmHg 86%
    01:00 +3°C° 0 mm 2 mps 765 mmHg 86%
    02:00 +3°C° 0 mm 2 mps 766 mmHg 85%
    03:00 +3°C° 0 mm 2 mps 766 mmHg 86%
    04:00 +2°C° 0 mm 3 mps 766 mmHg 87%
    05:00 +1°C° 0 mm 3 mps 766 mmHg 88%
    06:00 +2°C° 0 mm 3 mps 766 mmHg 87%
    07:00 +3°C° 0 mm 3 mps 766 mmHg 87%
    08:00 +3°C° 0 mm 4 mps 766 mmHg 86%
    09:00 +4°C° 0 mm 4 mps 766 mmHg 81%
    10:00 +5°C° 0 mm 4 mps 765 mmHg 76%
    11:00 +6°C° 0 mm 5 mps 765 mmHg 71%
    12:00 +7°C° 0 mm 5 mps 764 mmHg 70%
    13:00 +7°C° 0 mm 5 mps 764 mmHg 68%
    14:00 +8°C° 0 mm 5 mps 763 mmHg 67%
    15:00 +7°C° 0 mm 4 mps 763 mmHg 70%
    16:00 +6°C° 0 mm 4 mps 762 mmHg 73%
    17:00 +6°C° 0 mm 4 mps 762 mmHg 76%
    18:00 +5°C° 0 mm 4 mps 761 mmHg 81%
    19:00 +4°C° 0 mm 3 mps 761 mmHg 85%
    20:00 +3°C° 0 mm 3 mps 761 mmHg 89%
    21:00 +3°C° 0 mm 3 mps 761 mmHg 90%
    22:00 +3°C° 0 mm 3 mps 761 mmHg 91%
    23:00 +3°C° 0 mm 3 mps 761 mmHg 92%

    27 February, Monday

    Time Temperature Precipitation Wind Pressure Humidity
    00:00 +3°C° 0 mm 3 mps 760 mmHg 93%
    01:00 +3°C° 0 mm 3 mps 760 mmHg 93%
    02:00 +3°C° 0 mm 3 mps 760 mmHg 93%
    03:00 +4°C° 0 mm 2 mps 759 mmHg 93%
    04:00 +4°C° 0 mm 2 mps 759 mmHg 93%
    05:00 +4°C° 0 mm 2 mps 759 mmHg 92%
    06:00 +5°C° 0 mm 2 mps 759 mmHg 91%
    07:00 +5°C° 0 mm 2 mps 760 mmHg 90%
    08:00 +6°C° 0 mm 2 mps 760 mmHg 89%
    09:00 +7°C° 0 mm 2 mps 760 mmHg 82%
    10:00 +9°C° 0 mm 2 mps 761 mmHg 76%
    11:00 +12°C° 0 mm 2 mps 761 mmHg 69%
    12:00 +12°C° 0 mm 2 mps 761 mmHg 65%
    13:00 +13°C° 0 mm 2 mps 761 mmHg 61%
    14:00 +14°C° 0 mm 2 mps 760 mmHg 57%
    15:00 +13°C° 0 mm 2 mps 761 mmHg 60%
    16:00 +12°C° 0 mm 2 mps 761 mmHg 62%
    17:00 +12°C° 0 mm 2 mps 761 mmHg 65%
    18:00 +9°C° 0 mm 2 mps 761 mmHg 69%
    19:00 +8°C° 0 mm 2 mps 761 mmHg 72%
    20:00 +6°C° 0 mm 2 mps 762 mmHg 76%
    21:00 +6°C° 0 mm 2 mps 762 mmHg 77%
    22:00 +6°C° 0 mm 2 mps 762 mmHg 78%
    23:00 +5°C° 0 mm 2 mps 762 mmHg 78%
    Show more